Hourly Data Report for October 29, 2015

All times are specified in Local Standard Time (LST). Add 1 hour to adjust for Daylight Saving Time where and when it is observed.

KAMLOOPS A
BRITISH COLUMBIA

50°42'09.000" N
120°26'55.000" W
345.30 m
1163781
71887
YKA

Download Data

Hourly Data (October 2015)
Hourly Data Report for October 29, 2015
Temp Definition
°C
Dew Point Temp Definition
°C
Rel Hum Definition
%
Wind Dir Definition
10's deg

Wind Spd Definition
km/h
Visibility Definition
km
Stn Press Definition
kPa
Hmdx Definition


Wind Chill Definition


Weather Definition


TIME
00:00 Legend Double Dagger 6.1 4.9 92 7 5 32.2 97.21     LegendNANA
01:00 Legend Double Dagger 6.1 5.1 93 9 7 32.2 97.18     Cloudy
02:00 Legend Double Dagger 6.1 5.1 93 36 3 32.2 97.21     LegendNANA
03:00 Legend Double Dagger 6.2 5.2 93 9 9 32.2 97.18     LegendNANA
04:00 Legend Double Dagger 6.2 5.2 93 18 6 32.2 97.16     Cloudy
05:00 Legend Double Dagger 5.8 5.1 95 11 3 32.2 97.14     LegendNANA
06:00 Legend Double Dagger 5.7 5.0 95 5 7 32.2 97.16     LegendNANA
07:00 Legend Double Dagger 5.9 5.0 94 5 6 32.2 97.16     Cloudy
08:00 Legend Double Dagger 6.6 5.6 93 28 3 32.2 97.19     LegendNANA
09:00 Legend Double Dagger 7.0 5.8 92 23 4 32.2 97.20     LegendNANA
10:00 Legend Double Dagger 7.8 5.6 86 36 2 32.2 97.23     Cloudy
11:00 Legend Double Dagger 8.2 5.7 84 5 4 48.3 97.25     LegendNANA
12:00 Legend Double Dagger 8.8 5.7 81 36 4 48.3 97.20     LegendNANA
13:00 Legend Double Dagger 9.4 5.6 77 23 4 64.4 97.12     Mostly Cloudy
14:00 Legend Double Dagger 9.9 6.1 77 28 8 64.4 97.05     LegendNANA
15:00 Legend Double Dagger 9.9 6.3 78 23 5 64.4 97.06     LegendNANA
16:00 Legend Double Dagger 9.1 6.6 84 9 6 64.4 97.00     Mostly Cloudy
17:00 Legend Double Dagger 8.2 6.3 88 11 3 32.2 96.92     LegendNANA
18:00 Legend Double Dagger 7.9 6.4 90 10 8 64.4 96.90     LegendNANA
19:00 Legend Double Dagger 7.8 6.8 93 18 8 64.4 96.96     Rain Showers
20:00 Legend Double Dagger 7.7 6.5 92 8 14 32.2 96.84     LegendNANA
21:00 Legend Double Dagger 8.5 6.1 85 9 17 32.2 96.77     LegendNANA
22:00 Legend Double Dagger 7.9 5.9 87 2 11 64.4 96.75     Cloudy
23:00 Legend Double Dagger 9.0 5.2 77 10 9 64.4 96.70     LegendNANA

Notes on Data Quality.

Legend

  • E = Estimated
  • M = Missing
  • NA = Not Available
  • ‡ = Partner data that is not subject to review by the National Climate Archives
Date modified: